This demonstration page uses our WeatherBlox Daily Observations layout. Learn more.

Left ArrowRight Arrow

Hourly Observations for August 5, 2021

Temp ( °F °C ) Dew Point ( °F °C ) Humidity (%) Winds ( mph kmh ) Pressure ( in mb ) Visibility ( mi km ) Precip ( " mm )
12:15 am 00:15 Partly Cloudy 69 20.7 64 17.5 82 82 S 6 9 29.96 1015 10 16 N/A
12:35 am 00:35 Partly Cloudy 70 21.2 62 16.6 75 75 SW 7 11 29.96 1014 10 16 N/A
12:55 am 00:55 Partly Cloudy 70 21.1 62 16.4 75 75 WSW 9 15 29.97 1015 10 16 N/A
1:15 am 01:15 Clear 69 20.7 63 17 79 79 WSW 7 11 29.97 1015 10 16 N/A
1:35 am 01:35 Clear 69 20.7 62 16.6 77 77 WSW 5 7 29.97 1015 10 16 N/A
1:55 am 01:55 Clear 69 20.5 63 17 80 80 N N/A 29.96 1015 10 16 N/A
2:15 am 02:15 Clear 68 20 63 17.3 85 85 SW 3 6 29.96 1014 10 16 N/A
2:35 am 02:35 Clear 67 19.5 63 17 86 86 W 5 7 29.96 1015 10 16 N/A
2:55 am 02:55 Clear 67 19.3 63 17 87 87 W 6 9 29.96 1015 10 16 N/A
3:15 am 03:15 Clear 67 19.3 62 16.8 86 86 W 7 11 29.96 1015 10 16 N/A
3:35 am 03:35 Clear 67 19.5 62 16.6 83 83 WSW 6 9 29.94 1014 10 16 N/A
3:55 am 03:55 Clear 67 19.7 61 16.3 81 81 WSW 6 9 29.94 1014 10 16 N/A
4:15 am 04:15 Clear 67 19.7 61 16.1 80 80 WSW 6 9 29.94 1014 10 16 N/A
4:35 am 04:35 Clear 66 19.1 61 16.3 84 84 WSW 6 9 29.96 1015 10 16 N/A
4:55 am 04:55 Clear 65 18.6 62 16.4 87 87 SW 6 9 29.96 1015 10 16 N/A
5:15 am 05:15 Clear 65 18.1 62 16.5 90 90 SW 5 7 29.96 1015 10 16 N/A
5:35 am 05:35 Clear 65 18.1 62 16.7 92 92 SW 5 7 29.95 1014 10 16 N/A
5:55 am 05:55 Clear 64 17.6 62 16.4 93 93 N N/A 29.98 1015 10 16 N/A
6:15 am 06:15 Clear 63 17.2 61 16.1 93 93 SW 5 7 29.97 1015 7 11 N/A
6:35 am 06:35 Clear 63 17.2 61 16.2 94 94 SW 3 6 29.98 1015 7 11 N/A
6:55 am 06:55 Sunny with Mist and Fog 63 17.2 61 16.3 94 94 N N/A 29.98 1015 5 8 N/A
7:15 am 07:15 Sunny with Mist and Fog 64 17.5 62 16.6 95 95 WSW 3 6 29.98 1015 5 8 N/A
7:35 am 07:35 Sunny 65 18.2 63 17.2 94 94 WSW 3 6 29.98 1015 7 11 N/A
7:55 am 07:55 Sunny 67 19.2 64 17.6 91 91 W 7 11 29.98 1015 7 11 N/A
8:15 am 08:15 Sunny 67 19.6 64 17.6 88 88 W 6 9 29.98 1015 7 11 N/A
8:35 am 08:35 Sunny 69 20.3 64 17.8 86 86 W 6 9 29.96 1015 10 16 N/A
8:55 am 08:55 Sunny 70 21.2 64 17.9 82 82 WSW 3 6 29.96 1014 10 16 N/A
9:15 am 09:15 Sunny 72 22.2 64 17.9 77 77 W 3 6 29.96 1015 10 16 N/A
9:35 am 09:35 Sunny 73 23 64 17.6 72 72 W 5 7 29.95 1014 10 16 N/A
9:55 am 09:55 Sunny 74 23.4 65 18.3 73 73 W 3 6 29.95 1014 10 16 N/A
10:15 am 10:15 Sunny 75 23.8 64 18 70 70 WSW 5 7 29.95 1014 10 16 N/A
10:35 am 10:35 Sunny 76 24.3 65 18.3 69 69 W 5 7 29.94 1014 10 16 N/A
11:35 am 11:35 Sunny 79 26.1 67 19.2 66 66 N N/A 29.93 1013 10 16 N/A
11:55 am 11:55 Sunny 80 26.8 66 19.1 63 63 N N/A 29.91 1013 10 16 N/A
12:15 pm 12:15 Sunny 82 27.7 66 19 59 59 N N/A 29.91 1013 10 16 N/A
12:35 pm 12:35 Sunny 82 28 64 17.9 54 54 N N/A 29.90 1013 10 16 N/A
12:55 pm 12:55 Sunny 84 28.7 66 18.8 55 55 SSE 5 7 29.89 1012 10 16 N/A
1:15 pm 13:15 Sunny 83 28.6 64 17.6 51 51 SSE 3 6 29.89 1012 10 16 N/A
1:35 pm 13:35 Sunny 85 29.3 63 17.1 48 48 SSE 3 6 29.88 1012 10 16 N/A
1:55 pm 13:55 Sunny 85 29.2 62 16.9 47 47 S 6 9 29.88 1012 10 16 N/A
2:15 pm 14:15 Sunny 85 29.5 62 16.6 46 46 SSE 5 7 29.87 1012 10 16 N/A
2:35 pm 14:35 Sunny 86 29.8 62 16.7 45 45 SSE 5 7 29.86 1011 10 16 N/A
2:55 pm 14:55 Sunny 86 30 63 17.3 46 46 SSE 7 11 29.85 1011 10 16 N/A
3:15 pm 15:15 Sunny 87 30.5 61 16 42 42 SSW 8 13 29.84 1011 10 16 N/A
3:35 pm 15:35 Sunny 87 30.5 62 16.9 44 44 S 6 9 29.84 1011 10 16 N/A
3:55 pm 15:55 Sunny 87 30.8 60 15.3 39 39 S 6 9 29.84 1011 10 16 N/A
4:15 pm 16:15 Sunny 87 30.7 61 16.1 41 41 S 3 6 29.83 1010 10 16 N/A
4:35 pm 16:35 Sunny with Nearby Thunderstorms 87 30.8 61 16.1 41 41 SSW 6 9 29.83 1010 10 16 N/A
4:55 pm 16:55 Sunny 87 30.8 63 17.1 44 44 WSW 5 7 29.83 1010 10 16 N/A
5:15 pm 17:15 Sunny 87 30.5 62 16.5 43 43 N N/A 29.83 1010 10 16 N/A
5:35 pm 17:35 Sunny 87 30.6 62 16.8 43 43 S 5 7 29.82 1010 10 16 N/A
5:55 pm 17:55 Sunny 86 30.2 62 16.7 44 44 S 6 9 29.82 1010 10 16 N/A
6:15 pm 18:15 Sunny 86 30 63 17.4 47 47 S 6 9 29.82 1010 10 16 N/A
6:35 pm 18:35 Sunny 85 29.6 64 17.9 49 49 S 6 9 29.81 1010 10 16 N/A
6:55 pm 18:55 Sunny 84 29 65 18.6 53 53 S 5 7 29.82 1010 10 16 N/A
7:15 pm 19:15 Sunny 84 28.7 66 18.7 55 55 SSE 3 6 29.82 1010 10 16 N/A
7:35 pm 19:35 Sunny 83 28.1 68 20 61 61 N N/A 29.82 1010 10 16 N/A
7:55 pm 19:55 Sunny 81 27.4 69 20.5 66 66 SSE 3 6 29.83 1010 10 16 N/A
8:15 pm 20:15 Sunny 80 26.6 70 21.1 72 72 S 5 7 29.83 1010 10 16 N/A
8:35 pm 20:35 Sunny 81 27 66 19 62 62 S 5 7 29.83 1010 10 16 N/A
8:55 pm 20:55 Clear 78 25.3 69 20.5 75 75 S 3 6 29.85 1011 10 16 N/A
9:15 pm 21:15 Clear 75 23.8 69 20.6 82 82 E 5 7 29.88 1012 10 16 N/A
9:35 pm 21:35 Clear with Thunderstorms 75 24 68 20 78 78 ESE 5 7 29.88 1012 10 16 N/A
9:55 pm 21:55 Mostly Cloudy with Light Rain 75 23.9 67 19.7 77 77 NNE 5 7 29.91 1013 10 16 N/A
10:15 pm 22:15 Partly Cloudy 73 23 69 20.6 86 86 N 10 17 29.91 1013 10 16 N/A
10:35 pm 22:35 Partly Cloudy with Light Rain 75 24 62 16.6 63 63 N 3 6 29.88 1012 10 16 N/A
10:55 pm 22:55 Partly Cloudy 75 23.9 62 16.5 63 63 W 6 9 29.86 1011 10 16 N/A
11:15 pm 23:15 Clear 74 23.3 60 15.6 62 62 N N/A 29.86 1011 10 16 N/A
11:35 pm 23:35 Clear 74 23.6 59 15.2 59 59 SW 7 11 29.86 1011 10 16 N/A
11:55 pm 23:55 Clear 72 22 61 16.3 70 70 SE 9 15 29.87 1012 10 16 N/A

Powered by AerisWeather